Location: Badiung Bay
(11.9356°N, 124.2897°E)
Time: 18:48:32
(UTC+00:00)

Daily predictions for brighter satellites

Satellite Brightness Start Highest point End
(mag) Time Altitude Azimuth Time Altitude Azimuth Time Altitude Azimuth
CZ-3C R/B 4.3 18:36:39 14° E 18:36:39 14° E 18:38:01 10° E
Ariane H10-3 4.3 18:37:13 31° SE 18:37:13 31° SE 18:49:15 10° E
CZ-3B R/B 2.9 19:10:42 46° SE 19:10:42 46° SE 19:14:26 10° E
ARIANE 5 R/B 4.3 19:14:40 68° SSW 19:15:15 71° S 19:48:39 10° E
ARIANE 5 R/B 4.3 19:14:41 68° SSW 19:15:15 71° S 19:48:39 10° E
USA 267 3.8 19:43:15 10° NE 19:49:38 57° SE 19:56:01 10° SSW
Cosmos 1455 3.1 19:51:14 45° ESE 19:51:14 45° ESE 19:54:23 10° SSE
Milstar 3 Cent rocket 3.5 19:48:24 36° NW 19:51:40 51° NNE 19:57:27 10° E
Hubble Space Telescope 1.3 19:53:10 55° E 19:53:10 55° E 19:56:29 10° ESE
Cosmos 1934 Rocket 3.8 19:47:18 10° S 19:53:27 70° W 19:59:42 10° N
Cosmos 1898 Rocket 4.4 19:52:09 10° S 19:57:07 49° ESE 20:02:07 10° NNE
Geosat 3.8 19:54:14 10° SSE 19:59:14 76° WSW 19:59:54 65° NW
Delta 2 Rocket 3.4 20:00:00 87° SSW 20:00:04 89° SE 20:04:58 10° NE
SJ 16-02 2.7 19:57:59 10° S 20:02:04 38° E 20:06:08 10° NNE
SL-27 R/B 3.5 20:02:31 10° S 20:05:44 42° E 20:08:53 10° NNE
CZ-4B R/B 2.5 20:09:07 80° N 20:09:18 87° WNW 20:13:04 10° SSW
OAO 3 Copernicus 4.2 20:07:48 43° SW 20:09:29 86° SE 20:14:30 10° NE
GPS 2-12 Rocket1 4.1 20:09:48 29° N 20:09:48 29° N 20:13:37 10° ENE
Cosmos 1937 Rocket 4.4 20:08:24 10° S 20:13:24 49° ESE 20:18:21 10° NNE
Cosmos 783 Rocket 4.5 20:13:22 39° NW 20:15:07 59° WSW 20:20:14 10° S
Lacrosse 4 Rocket 3.4 20:15:17 10° N 20:18:52 27° ENE 20:22:32 10° SE
Abrixas rocket 3.1 20:18:02 25° S 20:19:20 43° SE 20:22:12 10° NE
ASTEX 1 4.4 20:15:09 10° SSE 20:19:50 47° E 20:24:33 10° N
STARLINK-42 4.3 20:16:58 10° SSW 20:21:00 54° SE 20:25:01 10° NE
CZ-3B R/B 3.9 20:19:29 14° N 20:21:32 18° NNE 20:27:01 10° ENE
STARLINK-21 4.4 20:17:45 10° SSW 20:21:47 52° SE 20:25:48 10° NE
Okean O Rocket 4.1 20:18:34 10° NE 20:22:03 24° E 20:25:32 10° SSE
Palapa 6 Rocket 4.4 20:18:24 30° WNW 20:22:51 88° NNE 20:30:35 10° ESE
STARLINK-45 3.9 20:21:13 10° SSW 20:25:19 69° SE 20:29:26 10° NE
Yuri Rocket 4.1 20:25:44 30° NW 20:26:47 33° NNW 20:30:52 10° NE
PSLV R/B 3.9 20:22:53 10° S 20:26:52 55° W 20:28:54 26° NW
STARLINK-76 4.0 20:24:22 10° SSW 20:28:28 64° SE 20:32:33 10° NE
DELTA 2 R/B (1) 3.5 20:25:46 30° NW 20:28:38 80° SW 20:34:10 10° SE
STARLINK 3.9 20:26:00 10° SSW 20:30:06 68° SE 20:34:12 10° NE
STARLINK-32 3.8 20:27:36 10° SSW 20:31:44 72° SE 20:35:51 10° NE
Meteor 2-10 Rocket 3.7 20:26:27 10° NNW 20:31:55 63° W 20:37:35 10° S
ATLAS CENTAUR R/B 3.8 20:28:35 10° S 20:32:48 31° ESE 20:37:06 10° NE
STARLINK-40 3.7 20:29:17 10° SSW 20:33:24 76° SE 20:37:30 10° NE
Cosmos 1605 Rocket 4.2 20:28:14 10° SSW 20:34:14 46° W 20:40:11 10° NNW
STARLINK-44 3.7 20:30:55 10° SSW 20:35:02 80° SE 20:39:10 10° NE
Ariane H10 3.6 20:34:23 12° SW 20:35:58 17° S 20:38:22 10° SE
ARIANE DEB (SPELDA) 4.0 20:35:15 10° SSW 20:36:33 14° S 20:38:07 10° SE
STARLINK-36 3.6 20:32:34 10° SSW 20:36:43 84° ESE 20:40:51 10° NE
Cosmos 2123 Rocket 3.9 20:32:45 10° N 20:38:54 69° W 20:45:06 10° S
CZ-2C R/B 3.3 20:39:32 23° W 20:39:32 23° W 20:42:56 10° SW
Cosmos 1697 Rocket 4.2 20:36:24 10° N 20:41:31 37° ENE 20:46:39 10° SE
STARLINK-35 3.5 20:39:15 10° SW 20:43:22 79° NW 20:47:29 10° NNE
Cosmos 1340 Rocket 4.0 20:43:37 22° W 20:43:51 22° W 20:46:59 10° SW
Cosmos 2082 Rocket 4.0 20:46:38 12° NW 20:46:38 12° NW 20:47:15 10° NW
STARLINK-51 3.5 20:40:52 10° SW 20:45:00 75° NW 20:49:07 10° NNE
In-Cosmos 22 Rocket 4.1 20:40:40 10° S 20:45:58 83° E 20:51:17 10° N
STARLINK-30 3.5 20:42:32 10° SW 20:46:39 71° NW 20:50:45 10° NNE
Mugunghwa Rocket 4.3 20:43:46 19° W 20:48:15 54° SSW 20:54:37 10° SE
STARLINK-33 3.5 20:44:12 10° SW 20:48:18 67° NW 20:52:24 10° NNE
H-2A R/B 4.3 20:22:03 18° WNW 20:48:59 73° NNE 20:54:07 10° ESE
Meteor 1-31 Rocket 4.2 20:49:41 18° W 20:49:41 18° W 20:51:51 10° WSW
FENGYUN 3A 4.0 20:43:53 10° NNE 20:49:15 69° ESE 20:54:36 10° S
STARLINK-50 3.5 20:45:55 10° SW 20:50:01 64° NW 20:54:07 10° NNE
STARLINK-56 3.6 20:49:16 10° SW 20:53:20 57° NW 20:57:23 10° NNE
Starlink (trailer) 3.7 20:50:57 10° SW 20:54:59 54° NW 20:59:02 10° NNE
CZ-4B DEB 4.1 20:50:12 10° N 20:55:37 69° WNW 21:01:05 10° SSW
STARLINK-38 3.7 20:52:40 10° SW 20:56:41 51° NW 21:00:42 10° NNE
Cosmos 1484 Rocket 3.3 20:53:15 10° N 20:56:58 38° WNW 21:00:41 10° SSW
STARLINK-65 3.8 20:54:16 10° SW 20:58:16 49° NW 21:02:15 10° NNE
Cosmos 1892 2.6 20:54:38 10° S 20:58:28 88° W 21:02:16 10° N
COBE Rocket 4.1 20:56:16 10° SSE 21:01:26 90° ESE 21:06:37 10° N
STARLINK-69 4.0 20:59:26 10° SW 21:03:19 40° NW 21:07:13 10° NNE
STARLINK-66 4.0 21:01:02 10° WSW 21:04:55 40° NW 21:08:48 10° NNE
STARLINK-41 4.1 21:02:46 10° WSW 21:06:37 38° NW 21:10:28 10° NNE
STARLINK-64 4.2 21:04:29 10° WSW 21:08:16 35° NW 21:12:03 10° NNE
METEOR-M 4.1 21:03:06 10° N 21:08:23 66° WNW 21:13:39 10° SSW
Okean 3 Rocket 3.7 21:04:32 10° SSW 21:08:58 57° W 21:13:25 10° N
STARLINK-70 4.3 21:06:10 10° WSW 21:09:57 34° NW 21:13:43 10° NNE
Cosmos 372 Rocket 4.4 21:05:48 10° S 21:10:58 69° ESE 21:16:06 10° NNE
STARLINK-68 4.4 21:08:00 10° WSW 21:11:40 30° NW 21:15:20 10° N
FALCON 9 R/B 3.8 21:05:36 10° WSW 21:11:41 79° NNW 21:36:48 10° NE
Cosmos 1408 Rocket 4.2 21:07:42 10° S 21:11:55 60° E 21:16:08 10° NNE
Milstar 3 3.0 21:04:16 10° WNW 21:12:09 70° NNE 21:18:52 10° ESE
SL-8 R/B 3.9 21:07:57 10° NW 21:12:37 55° SW 21:17:16 10° SSE
SWIFT 2.8 21:08:28 10° WSW 21:12:42 63° SSE 21:16:56 10° E
STARLINK-58 4.4 21:09:32 10° WSW 21:13:13 31° NW 21:16:53 10° N
CZ-3B R/B 1.7 21:08:27 10° W 21:13:25 32° NNW 21:16:14 10° NE
GPS 2-18 Rocket1 4.4 21:12:11 10° WNW 21:15:39 27° N 21:19:05 10° NE
Ariane H10 2.6 21:15:40 10° SW 21:17:16 27° SSE 21:20:49 10° ESE
Cosmos 1408 2.9 21:13:36 10° S 21:17:18 72° E 21:20:59 10° N
STARLINK 4.4 21:14:21 10° WSW 21:18:02 31° NW 21:21:43 10° N
Cosmos 2058 4.3 21:15:57 10° SW 21:18:55 19° W 21:21:54 10° NW
Helios 1A Rocket 3.2 21:16:25 10° N 21:20:16 42° WNW 21:24:06 10° SSW
ARIANE 5 R/B 3.4 21:08:33 10° W 21:20:46 44° SSW 21:23:44 10° ESE
